CW0214 Weather Reports


Display with metric or nautical units.
time (UTC)temp
F
wind
direction
speed
MPH
gust
MPH
rain 1hr
in
rain 24hr
in
rain mn
in
humidity
%
barometer
mb
20260905080405 71 318 1.0 3.0 0.00 0.00 0.00 74 1019.2
20260905075905 71 323 1.0 3.0 0.00 0.00 0.00 74 1019.2
20260905075405 70 306 2.0 3.0 0.00 0.00 0.00 74 1019.1
20260905074905 70 344 1.0 3.0 0.00 0.00 0.00 75 1019.0
20260905074405 70 336 3.0 5.0 0.00 0.00 0.00 74 1019.1
20260905073905 70 105 0.0 0.0 0.00 0.00 0.00 75 1019.0
20260905073405 70 105 0.0 0.0 0.00 0.00 0.00 76 1018.9
20260905072905 70 105 0.0 0.0 0.00 0.00 0.00 76 1019.0
20260905072406 69 105 0.0 2.0 0.00 0.00 0.00 77 1019.1
20260905071905 69 105 0.0 1.0 0.00 0.00 0.00 78 1019.0
20260905071405 68 105 0.0 0.0 0.00 0.00 0.00 79 1018.9
20260905070905 68 105 0.0 0.0 0.00 0.00 0.00 79 1018.7
20260905070405 68 105 0.0 0.0 0.00 0.00 0.00 79 1018.7
20260905065905 68 105 0.0 0.0 0.00 0.00 0.00 79 1018.7
20260905065405 67 105 0.0 0.0 0.00 0.00 0.00 79 1018.7
20260905064905 67 105 0.0 0.0 0.00 0.00 0.00 79 1018.6
20260905063905 67 105 0.0 0.0 0.00 0.00 0.00 79 1018.6
20260905063405 67 105 0.0 0.0 0.00 0.00 0.00 79 1018.5
20260905062904 67 105 0.0 0.0 0.00 0.00 0.00 79 1018.2
20260905061905 67 105 0.0 0.0 0.00 0.00 0.00 78 1018.1
20260905061405 68 105 0.0 0.0 0.00 0.00 0.00 78 1018.0
20260905060905 68 105 0.0 1.0 0.00 0.00 0.00 78 1018.1
20260905060405 68 105 0.0 0.0 0.00 0.00 0.00 78 1018.0
20260905055904 68 105 0.0 0.0 0.00 0.00 0.00 78 1017.9
20260905054905 68 105 0.0 0.0 0.00 0.00 0.00 77 1017.8
20260905054404 68 105 0.0 0.0 0.00 0.00 0.00 77 1017.7
20260905053405 68 105 0.0 1.0 0.00 0.00 0.00 77 1017.7
20260905052905 68 105 0.0 0.0 0.00 0.00 0.00 77 1017.7
20260905052405 68 105 0.0 0.0 0.00 0.00 0.00 77 1017.8
20260905051405 69 105 0.0 0.0 0.00 0.00 0.00 75 1017.6
20260905050904 69 105 0.0 0.0 0.00 0.00 0.00 75 1017.6
20260905050405 69 105 0.0 0.0 0.00 0.00 0.00 75 1017.5
20260905045905 69 105 0.0 0.0 0.00 0.00 0.00 75 1017.6
20260905044904 70 105 0.0 0.0 0.00 0.00 0.00 74 1017.6
20260905044405 70 105 0.0 0.0 0.00 0.00 0.00 74 1017.5
20260905043905 70 105 0.0 0.0 0.00 0.00 0.00 73 1017.4
20260905043405 70 105 0.0 2.0 0.00 0.00 0.00 73 1017.6
20260905042905 70 105 1.0 2.0 0.00 0.00 0.00 72 1017.5
20260905042404 70 105 0.0 0.0 0.00 0.00 0.00 72 1017.5
20260905041905 70 105 0.0 0.0 0.00 0.00 0.00 73 1017.5
20260905040905 70 105 0.0 0.0 0.00 0.00 0.00 72 1017.6
20260905040404 71 105 0.0 0.0 0.00 0.00 0.00 72 1017.6
20260905035905 71 105 0.0 0.0 0.00 0.00 0.00 72 1017.6
20260905035405 71 105 0.0 0.0 0.00 0.00 0.00 71 1017.6
20260905034905 71 105 0.0 0.0 0.00 0.00 0.00 71 1017.5
20260905034405 71 105 0.0 0.0 0.00 0.00 0.00 71 1017.5
20260905033405 71 105 0.0 0.0 0.00 0.00 0.00 71 1017.5
20260905032904 72 105 0.0 1.0 0.00 0.00 0.00 71 1017.6
20260905032405 72 105 0.0 0.0 0.00 0.00 0.00 71 1017.6
20260905031905 72 105 0.0 0.0 0.00 0.00 0.00 71 1017.7
20260905031404 72 105 0.0 0.0 0.00 0.00 0.00 71 1017.8
20260905030904 72 105 0.0 0.0 0.00 0.00 0.00 72 1017.8
20260905025905 72 105 0.0 0.0 0.00 0.00 0.00 71 1017.8
20260905025405 72 105 0.0 0.0 0.00 0.00 0.00 71 1017.8
20260905024904 72 105 0.0 0.0 0.00 0.00 0.00 71 1017.8
20260905024405 72 105 0.0 0.0 0.00 0.00 0.00 71 1017.9
20260905023904 72 105 0.0 0.0 0.00 0.00 0.00 71 1017.9
20260905023405 72 105 0.0 0.0 0.00 0.00 0.00 70 1017.9
20260905022905 73 105 0.0 0.0 0.00 0.00 0.00 69 1017.8
20260905022404 73 105 0.0 0.0 0.00 0.00 0.00 68 1017.9
20260905021905 73 105 0.0 0.0 0.00 0.00 0.00 68 1017.9
20260905021405 74 105 0.0 0.0 0.00 0.00 0.00 67 1018.0
20260905020904 74 105 0.0 0.0 0.00 0.00 0.00 67 1017.9
20260905020405 75 105 0.0 0.0 0.00 0.00 0.00 66 1017.8
20260905015904 75 105 0.0 0.0 0.00 0.00 0.00 66 1017.8
20260905015405 75 105 0.0 1.0 0.00 0.00 0.00 66 1017.9
20260905014905 76 105 0.0 1.0 0.00 0.00 0.00 65 1017.9
20260905014405 76 105 0.0 0.0 0.00 0.00 0.00 64 1017.9
20260905013904 76 105 0.0 0.0 0.00 0.00 0.00 64 1017.9
20260905013404 76 105 0.0 0.0 0.00 0.00 0.00 64 1018.0
20260905012905 76 105 0.0 1.0 0.00 0.00 0.00 63 1018.1
20260905012404 76 105 0.0 0.0 0.00 0.00 0.00 62 1018.1
20260905011904 76 105 0.0 5.0 0.00 0.00 0.00 62 1018.1
20260905011405 76 105 3.0 3.0 0.00 0.00 0.00 63 1018.1
20260905010905 76 105 0.0 0.0 0.00 0.00 0.00 63 1018.1
20260905005405 77 105 0.0 0.0 0.00 0.00 0.00 63 1018.0
20260905004904 77 105 0.0 0.0 0.00 0.00 0.00 63 1018.0
20260905004405 77 105 0.0 0.0 0.00 0.00 0.00 62 1018.1
20260905003404 77 105 3.0 3.0 0.00 0.00 0.00 62 1018.2
20260905002905 77 105 0.0 1.0 0.00 0.00 0.00 62 1018.3
20260905002405 77 105 0.0 0.0 0.00 0.00 0.00 62 1018.3
20260905001405 77 105 0.0 0.0 0.00 0.00 0.00 62 1018.3
20260905000905 78 105 0.0 0.0 0.00 0.00 0.00 62 1018.4
20260904235904 78 105 0.0 0.0 0.00 0.00 0.00 60 1018.5
20260904235404 79 105 0.0 2.0 0.00 0.00 0.00 59 1018.4
20260904234905 79 105 2.0 3.0 0.00 0.00 0.00 59 1018.3
20260904234404 79 105 1.0 3.0 0.00 0.00 0.00 58 1018.4
20260904233905 79 105 0.0 0.0 0.00 0.00 0.00 56 1018.4
20260904232905 80 105 0.0 2.0 0.00 0.00 0.00 56 1018.6
20260904232404 80 105 0.0 1.0 0.00 0.00 0.00 52 1018.7
20260904231404 80 105 0.0 0.0 0.00 0.00 0.00 55 1018.6
20260904230904 80 105 0.0 0.0 0.00 0.00 0.00 54 1018.6
20260904230405 80 105 1.0 5.0 0.00 0.00 0.00 55 1018.6
20260904225905 80 105 3.0 6.0 0.00 0.00 0.00 55 1018.6
20260904225405 80 105 5.0 6.0 0.00 0.00 0.00 55 1018.6
20260904224905 80 104 3.0 6.0 0.00 0.00 0.00 56 1018.6
20260904224405 80 104 2.0 6.0 0.00 0.00 0.00 56 1018.6
20260904223905 80 104 4.0 7.0 0.00 0.00 0.00 56 1018.6
20260904223404 80 113 3.0 5.0 0.00 0.00 0.00 55 1018.6
20260904222904 80 113 3.0 5.0 0.00 0.00 0.00 55 1018.5
20260904222404 80 113 0.0 1.0 0.00 0.00 0.00 56 1018.5
20260904221904 80 113 0.0 5.0 0.00 0.00 0.00 56 1018.6
20260904221405 80 113 1.0 5.0 0.00 0.00 0.00 57 1018.6
20260904220905 80 113 3.0 6.0 0.00 0.00 0.00 57 1018.6
20260904220404 81 113 1.0 6.0 0.00 0.00 0.00 57 1018.6
20260904215404 81 97 5.0 7.0 0.00 0.00 0.00 56 1018.7
20260904214904 81 105 4.0 7.0 0.00 0.00 0.00 55 1018.7
20260904213905 82 114 3.0 6.0 0.00 0.00 0.00 53 1018.7
20260904212904 83 114 1.0 5.0 0.00 0.00 0.00 51 1018.8
20260904212404 84 114 0.0 1.0 0.00 0.00 0.00 50 1018.8
20260904211904 84 114 1.0 7.0 0.00 0.00 0.00 49 1018.8
20260904211404 85 102 3.0 8.0 0.00 0.00 0.00 47 1018.9
20260904210907 85 99 1.0 6.0 0.00 0.00 0.00 45 1019.1
20260904210404 85 292 0.0 1.0 0.00 0.00 0.00 41 1019.0
20260904205904 86 292 0.0 0.0 0.00 0.00 0.00 40 1018.9
20260904205404 86 242 0.0 1.0 0.00 0.00 0.00 40 1018.8
20260904204904 86 242 0.0 6.0 0.00 0.00 0.00 40 1018.8
20260904204405 85 242 1.0 5.0 0.00 0.00 0.00 40 1018.8
20260904203905 85 239 2.0 8.0 0.00 0.00 0.00 40 1018.9
20260904202904 85 240 0.0 1.0 0.00 0.00 0.00 43 1018.9
20260904202404 85 240 0.0 0.0 0.00 0.00 0.00 43 1018.8
20260904201904 85 240 0.0 7.0 0.00 0.00 0.00 43 1019.0
20260904201405 85 205 0.0 7.0 0.00 0.00 0.00 44 1018.9
20260904200405 84 224 0.0 1.0 0.00 0.00 0.00 47 1018.8
20260904195905 84 224 0.0 0.0 0.00 0.00 0.00 49 1018.8
20260904195404 84 224 0.0 1.0 0.00 0.00 0.00 49 1018.8
20260904194904 84 224 0.0 0.0 0.00 0.00 0.00 50 1018.8
20260904194404 84 224 0.0 0.0 0.00 0.00 0.00 50 1018.9
20260904193404 85 224 0.0 0.0 0.00 0.00 0.00 50 1018.7
20260904192905 85 224 0.0 1.0 0.00 0.00 0.00 50 1018.7
20260904192406 85 153 0.0 1.0 0.00 0.00 0.00 50 1018.4
20260904191406 85 277 0.0 1.0 0.00 0.00 0.00 52 1018.6
20260904190905 85 284 0.0 0.0 0.00 0.00 0.00 52 1018.9
20260904190406 85 284 0.0 0.0 0.00 0.00 0.00 52 1018.8
20260904185906 85 251 1.0 5.0 0.00 0.00 0.00 53 1018.4
20260904185406 85 241 1.0 7.0 0.00 0.00 0.00 53 1018.4
20260904184906 85 229 0.0 6.0 0.00 0.00 0.00 53 1018.6
20260904184405 85 240 0.0 0.0 0.00 0.00 0.00 53 1018.6
20260904183906 85 230 0.0 1.0 0.00 0.00 0.00 53 1018.5
20260904183408 85 194 0.0 2.0 0.00 0.00 0.00 53 1018.8
20260904182405 85 125 1.0 8.0 0.00 0.00 0.00 53 1018.9
20260904181905 85 96 1.0 5.0 0.00 0.00 0.00 53 1018.7
20260904180905 85 159 1.0 8.0 0.00 0.00 0.00 53 1019.2
20260904180406 85 110 0.0 0.0 0.00 0.00 0.00 53 1019.4
20260904175906 85 110 0.0 0.0 0.00 0.00 0.00 53 1019.5
20260904174906 86 135 1.0 5.0 0.00 0.00 0.00 52 1019.1
20260904174405 86 43 0.0 3.0 0.00 0.00 0.00 52 1018.9
20260904172905 86 72 1.0 8.0 0.00 0.00 0.00 50 1019.9
20260904171905 86 94 0.0 5.0 0.00 0.00 0.00 50 1020.0
20260904171406 86 47 1.0 9.0 0.00 0.00 0.00 50 1020.0
20260904170905 87 65 1.0 7.0 0.00 0.00 0.00 50 1019.7
20260904170405 87 69 0.0 7.0 0.00 0.00 0.00 50 1019.1
20260904165905 87 75 1.0 6.0 0.00 0.00 0.00 49 1018.9
20260904165405 87 87 0.0 1.0 0.00 0.00 0.00 49 1018.7
20260904164905 87 87 6.0 12.0 0.00 0.00 0.00 48 1018.8
20260904164405 87 19 2.0 6.0 0.00 0.00 0.00 48 1018.5
20260904163905 87 109 1.0 5.0 0.00 0.00 0.00 48 1018.2
20260904163406 87 19 2.0 6.0 0.00 0.00 0.00 48 1018.3
20260904162905 87 340 1.0 7.0 0.00 0.00 0.00 48 1018.5
20260904162405 88 120 3.0 8.0 0.00 0.00 0.00 47 1019.1
20260904161906 88 80 0.0 5.0 0.00 0.00 0.00 47 1020.0
20260904161405 88 74 0.0 3.0 0.00 0.00 0.00 47 1020.2
20260904160905 88 74 0.0 3.0 0.00 0.00 0.00 47 1020.1
20260904160405 89 74 0.0 1.0 0.00 0.00 0.00 46 1019.9
20260904155905 89 74 0.0 6.0 0.00 0.00 0.00 47 1019.9
20260904155405 89 80 2.0 7.0 0.00 0.00 0.00 46 1019.6
20260904154905 89 110 1.0 5.0 0.00 0.00 0.00 46 1019.6
20260904153905 89 228 0.0 0.0 0.00 0.00 0.00 47 1019.6
20260904153405 89 228 0.0 0.0 0.00 0.00 0.00 46 1019.6
20260904152905 88 228 0.0 0.0 0.00 0.00 0.00 47 1019.8
20260904152405 88 228 0.0 2.0 0.00 0.00 0.00 47 1019.6
20260904150905 88 145 0.0 5.0 0.00 0.00 0.00 47 1019.6
20260904145405 87 90 0.0 0.0 0.00 0.00 0.00 47 1019.8
20260904144405 87 90 0.0 1.0 0.00 0.00 0.00 49 1019.8
20260904143905 87 44 0.0 2.0 0.00 0.00 0.00 49 1019.6
20260904143405 87 294 0.0 3.0 0.00 0.00 0.00 50 1019.4
20260904142906 87 274 0.0 6.0 0.00 0.00 0.00 49 1019.3
20260904141905 88 168 0.0 2.0 0.00 0.00 0.00 46 1020.6
20260904141405 88 116 0.0 1.0 0.00 0.00 0.00 48 1021.1
20260904140905 87 116 0.0 3.0 0.00 0.00 0.00 48 1021.0
20260904140406 87 104 1.0 7.0 0.00 0.00 0.00 49 1021.0
20260904135905 87 40 1.0 6.0 0.00 0.00 0.00 49 1021.0
20260904135405 87 115 0.0 2.0 0.00 0.00 0.00 49 1021.0
20260904134905 87 114 1.0 8.0 0.00 0.00 0.00 49 1020.8
20260904134405 87 104 1.0 9.0 0.00 0.00 0.00 49 1020.8
20260904133905 86 113 1.0 9.0 0.00 0.00 0.00 50 1021.0
20260904133405 86 109 2.0 10.0 0.00 0.00 0.00 49 1021.0
20260904132905 86 112 3.0 12.0 0.00 0.00 0.00 50 1020.8
20260904132405 86 127 2.0 12.0 0.00 0.00 0.00 51 1020.9
20260904131905 86 149 0.0 5.0 0.00 0.00 0.00 52 1020.6
20260904130905 85 161 0.0 9.0 0.00 0.00 0.00 54 1020.6
20260904130406 85 150 2.0 6.0 0.00 0.00 0.00 53 1020.5
20260904125905 85 126 3.0 9.0 0.00 0.00 0.00 52 1020.6
20260904125405 85 128 1.0 6.0 0.00 0.00 0.00 52 1020.8
20260904124405 85 151 0.0 6.0 0.00 0.00 0.00 51 1020.7
20260904123905 85 151 1.0 6.0 0.00 0.00 0.00 51 1020.7
20260904123405 86 145 1.0 7.0 0.00 0.00 0.00 50 1020.8
20260904122905 86 100 2.0 9.0 0.00 0.00 0.00 50 1021.0
20260904122405 85 58 1.0 5.0 0.00 0.00 0.00 51 1020.9
20260904121905 85 85 2.0 9.0 0.00 0.00 0.00 51 1020.9
20260904121406 85 49 4.0 10.0 0.00 0.00 0.00 51 1021.1
20260904120405 83 266 0.0 5.0 0.00 0.00 0.00 53 1020.5
20260904115405 81 195 0.0 0.0 0.00 0.00 0.00 56 1020.7
20260904114905 80 195 0.0 0.0 0.00 0.00 0.00 57 1020.8
20260904114405 80 195 0.0 0.0 0.00 0.00 0.00 57 1020.7
20260904113905 79 285 0.0 1.0 0.00 0.00 0.00 58 1021.0
20260904113404 79 225 4.0 7.0 0.00 0.00 0.00 59 1020.6
20260904112905 79 223 3.0 7.0 0.00 0.00 0.00 59 1020.4
20260904112405 79 206 3.0 10.0 0.00 0.00 0.00 59 1020.5
20260904111905 79 213 7.0 12.0 0.00 0.00 0.00 58 1020.4
20260904111405 79 219 6.0 9.0 0.00 0.00 0.00 58 1020.7
20260904110405 79 211 2.0 7.0 0.00 0.00 0.00 58 1021.4
20260904105905 79 231 0.0 3.0 0.00 0.00 0.00 58 1021.2
20260904105405 78 92 1.0 5.0 0.00 0.00 0.00 58 1021.9
20260904104905 78 355 0.0 0.0 0.00 0.00 0.00 58 1021.6
20260904104405 78 28 1.0 6.0 0.00 0.00 0.00 59 1021.7
20260904103905 78 65 0.0 2.0 0.00 0.00 0.00 59 1021.6
20260904103404 77 23 1.0 12.0 0.00 0.00 0.00 59 1021.7
20260904102905 77 10 7.0 12.0 0.00 0.00 0.00 58 1022.0
20260904102405 77 27 10.0 20.0 0.00 0.00 0.00 59 1022.0
20260904101405 76 268 0.0 6.0 0.00 0.00 0.00 58 1020.6
20260904100405 76 296 3.0 7.0 0.00 0.00 0.00 59 1021.0
20260904095905 76 225 0.0 5.0 0.00 0.00 0.00 59 1020.9
20260904095405 76 228 2.0 7.0 0.00 0.00 0.00 59 1020.9
20260904094905 76 242 3.0 9.0 0.00 0.00 0.00 58 1020.9
20260904094405 76 194 6.0 8.0 0.00 0.00 0.00 58 1021.0
20260904093905 76 50 0.0 1.0 0.00 0.00 0.00 59 1021.7
20260904093405 76 222 0.0 1.0 0.00 0.00 0.00 58 1021.6
20260904092905 76 222 0.0 0.0 0.00 0.00 0.00 58 1021.5
20260904092405 76 222 0.0 0.0 0.00 0.00 0.00 58 1021.5
20260904091905 76 222 0.0 0.0 0.00 0.00 0.00 58 1021.5
20260904091405 75 222 0.0 0.0 0.00 0.00 0.00 58 1021.3
20260904090905 75 222 0.0 0.0 0.00 0.00 0.00 59 1021.3
20260904085905 75 225 2.0 7.0 0.00 0.00 0.00 59 1021.1
20260904084905 75 224 3.0 6.0 0.00 0.00 0.00 58 1021.1
20260904084404 74 229 0.0 1.0 0.00 0.00 0.00 59 1021.2
20260904083904 74 229 0.0 0.0 0.00 0.00 0.00 59 1021.3
20260904082405 74 201 5.0 7.0 0.00 0.00 0.00 58 1021.2
20260904081904 74 218 0.0 0.0 0.00 0.00 0.00 59 1021.3
20260904081405 74 240 0.0 1.0 0.00 0.00 0.00 59 1021.3
20260904080905 74 9 0.0 1.0 0.00 0.00 0.00 58 1021.4